Location: Unspecified
(0.0000°N, 0.0000°E)
Time: 07:08:20
(UTC+00:00)

STARLINK-2709 - Pass Details

Date: 12 June 2021
Orbit: 348 x 350 km, 53.0° (Epoch: 20 June)

Event Time Altitude Azimuth Distance (km) Brightness Sun altitude
Exits shadow 04:37:46 - 156° (SSE) 1,372 5.6 -18.8°
Reaches altitude 10° 04:38:08 10° 150° (SSE) 1,302 5.6 -18.7°
Maximum altitude 04:39:22 12° 125° (SE) 1,186 5.7 -18.4°
Drops below altitude 10° 04:40:37 10° 99° (E) 1,300 6.4 -18.2°
Sets 04:43:32 0° 66° (ENE) 2,137 8.4 -17.5°
